Acapulco, Mexico

12:56 AM CDT on July 27, 2017 (GMT -0500)
Gen Juan N Alvarez International

Weather History for MMAA - December, 2012

Change the Weather History Date:

Friday, December 28, 2012

  Actual Average Record
Temperature  
Mean Temperature 80 °F -  
Max Temperature 92 °F 85 °F 95 °F (2015)
Min Temperature 67 °F 70 °F 67 °F (2012)
Cooling Degree Days 14    
Growing Degree Days 30 (Base 50)    
Moisture  
Dew Point 71 °F    
Average Humidity 75    
Maximum Humidity 89    
Minimum Humidity 34    
Precipitation  
Precipitation 0.00 in - - ()
Sea Level Pressure  
Sea Level Pressure 29.84 in    
Wind  
Wind Speed 2 mph ()    
Max Wind Speed 10 mph    
Max Gust Speed -    
Visibility 8.4 miles    
Events      
Averages and records for this station are not official NWS values.
T = Trace of Precipitation, MM = Missing Value Source: Averaged Metar Reports

Daily Weather History Graph

Daily Weather History Graph

Search for Another Location

Airport or City:

Trip Planner

Search our weather history database for the weather conditions in past years. The results will help you decide how hot, cold, wet, or windy it might be!

Date:

Astronomy

Dec. 28, 2012 Rise Set
Actual Time 7:06 AM CST 6:15 PM CST
Civil Twilight 6:43 AM CST 6:38 PM CST
Nautical Twilight 6:16 AM CST 7:05 PM CST
Astronomical Twilight 5:49 AM CST 7:32 PM CST
Moon 6:44 PM CST (12/28) 7:09 AM CST (12/28)
Length of Visible Light 11h 55m
Length of Day
11h 08m
Full, 100% of the Moon is Illuminated
Dec 28
Full
Jan 4
Last Quarter
Jan 11
New
Jan 18
First Quarter
Jan 26
Full

Hourly Weather History & Observations

Time (CST) Temp. Heat Index Dew Point Humidity Pressure Visibility Wind Dir Wind Speed Gust Speed Precip Events Conditions
12:45 AM 77.0 °F - 73.4 °F 89% 29.87 in 8.0 mi Calm Calm - N/A   Clear
1:45 AM 77.0 °F - 73.4 °F 89% 29.87 in 8.0 mi Calm Calm - N/A   Clear
2:45 AM 75.2 °F - 71.6 °F 89% 29.88 in 8.0 mi Calm Calm - N/A   Clear
3:45 AM 75.2 °F - 71.6 °F 89% 29.86 in 8.0 mi Calm Calm - N/A   Clear
4:45 AM 75.2 °F - 71.6 °F 89% 29.85 in 8.0 mi Calm Calm - N/A   Clear
5:45 AM 75.2 °F - 71.6 °F 89% 29.87 in 8.0 mi Calm Calm - N/A   Scattered Clouds
6:52 AM 75.2 °F - 69.8 °F 83% 29.85 in 8.0 mi Calm Calm - N/A   Clear
7:45 AM 73.4 °F - 69.8 °F 88% 29.86 in 8.0 mi Calm Calm - N/A   Scattered Clouds
8:44 AM 75.2 °F - 69.8 °F 83% 29.86 in 8.0 mi Calm Calm - N/A   Scattered Clouds
8:50 AM 74 °F - 62 °F 59% 29.86 in 12 mi NNW 4.5 mph - -   Clear
9:48 AM 77.0 °F - 69.8 °F 78% 29.89 in 8.0 mi Calm Calm - N/A   Scattered Clouds
10:42 AM 80.6 °F 85.4 °F 73.4 °F 79% 29.89 in 8.0 mi Calm Calm - N/A   Partly Cloudy
11:42 AM 84.2 °F 92.3 °F 75.2 °F 74% 29.86 in 8.0 mi Calm Calm - N/A   Scattered Clouds
11:50 AM 90 °F - 65 °F 34% 29.86 in 12 mi SW 4.5 mph - -   Clear
12:50 PM 87.8 °F 99.7 °F 77.0 °F 70% 29.83 in 8.0 mi WSW 6.9 mph - N/A   Scattered Clouds
1:41 PM 87.8 °F 99.7 °F 77.0 °F 70% 29.81 in 8.0 mi West 8.1 mph - N/A   Scattered Clouds
2:45 PM 86.0 °F 89.4 °F 68.0 °F 55% 29.76 in 8.0 mi SSW 9.2 mph - N/A   Scattered Clouds
2:50 PM 87 °F - 64 °F 37% 29.77 in 12 mi SSW 6.7 mph - -   Clear
3:42 PM 86.0 °F 93.4 °F 73.4 °F 66% 29.77 in 8.0 mi West 8.1 mph - N/A   Scattered Clouds
4:43 PM 84.2 °F 89.6 °F 71.6 °F 66% 29.78 in 8.0 mi West 10.4 mph - N/A   Scattered Clouds
5:47 PM 84.2 °F 88.4 °F 69.8 °F 62% 29.81 in 8.0 mi WSW 8.1 mph - N/A   Scattered Clouds
5:50 PM 83 °F - 71 °F 59% 29.78 in 12 mi SW 6.7 mph - -   Clear
6:45 PM 82.4 °F 88.2 °F 73.4 °F 74% 29.79 in 8.0 mi Calm Calm - N/A   Partly Cloudy
7:44 PM 82.4 °F 88.2 °F 73.4 °F 74% 29.80 in 8.0 mi Calm Calm - N/A   Clear
8:43 PM 80.6 °F 85.4 °F 73.4 °F 79% 29.83 in 8.0 mi Calm Calm - N/A   Clear
8:45 PM 76 °F - 71 °F 80% 29.83 in 6 mi West 4.5 mph - -   Clear
9:45 PM 78.8 °F - 73.4 °F 83% 29.85 in 8.0 mi Calm Calm - N/A   Scattered Clouds
10:45 PM 77.0 °F - 71.6 °F 83% 29.86 in 8.0 mi Calm Calm - N/A   Scattered Clouds
11:45 PM 72 °F - 69 °F 87% 29.88 in 6 mi NW 2.2 mph - -  
11:45 PM 77.0 °F - 71.6 °F 83% 29.86 in 8.0 mi Calm Calm - N/A   Clear